Content
SEND FEEDBACK

Daily
Averages
Monthly
Summary
Canada

VANCOUVER, BRITISH COLUMBIA


Home > North America > Canada > British Columbia
Elevation: 7 feet     Latitude: 49 11N     Longitude: 123 10W

WEATHER
 
SELECT A DAY
Number of Records: 254,178;   Date Range: 5/15/97 - 11/27/14
 
SHARE

PRINT THIS DATA

[ ← Previous Day ]
WEATHER ALMANAC - SEPTEMBER 5, 2013
[ Next Day → ]
[ °C ]   °F
Weather ElementAverageHighLow
Temperature60.5 °F64.4 °F (3:35 pm)53.6 °F (4:35 am)
Dewpoint57.9 °F60.8 °F (2:35 pm)53.6 °F (4:35 am)
Humidity91.6 %100 % (12:35 am)77 % (7:15 pm)
Barometer29.99 in30.04 in (7:55 am)29.91 in (7:35 pm)
Wind Speed0.8 mph5.8 mph (1:35 pm)
Weather ElementAverage
Visibility9.6 mi
Wind DirectionNE (49.3 °)

Weather ElementTotal
Precipitation0.06 in
Heating Degree Days6 (Base 65)
Growing Degree Days9 (Base 50)
Averaged from 71 records on September 5, 2013
WEATHER CONDITIONS BREAKOUT
WIND DIRECTION BREAKOUT
WEATHER BY HOUR - SEPTEMBER 5, 2013
[ °C ]   °F
Local TimeTemperatureDewpointHumidityBarometerVisibilityWind DirectionWind SpeedGust SpeedPrecipitationEventsConditions
12:35 AM57.2 °F57.2 °F100 %30.03 in10.0 miCalmClear
12:55 AM57.2 °F55.4 °F94 %30.03 in10.0 miCalmPartly Cloudy
1:15 AM57.2 °F57.2 °F100 %30.03 in10.0 miCalmClear
1:35 AM55.4 °F55.4 °F100 %30.02 in8.0 miCalmClear
1:55 AM55.4 °F55.4 °F100 %30.02 in9.0 miCalmClear
2:15 AM55.4 °F55.4 °F100 %30.02 in10.0 miCalmClear
2:35 AM57.2 °F57.2 °F100 %30.02 in10.0 miCalmClear
2:55 AM55.4 °F55.4 °F100 %30.01 in10.0 miCalmClear
3:15 AM55.4 °F55.4 °F100 %30.00 in10.0 miCalmClear
3:35 AM55.4 °F55.4 °F100 %30.00 in10.0 miCalmClear
3:55 AM55.4 °F55.4 °F100 %30.01 in10.0 miCalmClear
4:15 AM55.4 °F55.4 °F100 %30.01 in8.0 miCalmClear
4:35 AM53.6 °F53.6 °F100 %30.01 in10.0 miCalmClear
4:55 AM55.4 °F55.4 °F100 %30.00 in9.0 miCalmClear
5:15 AM55.4 °F55.4 °F100 %30.00 in10.0 miCalmClear
5:35 AM55.4 °F55.4 °F100 %30.00 in10.0 miCalmClear
5:55 AM55.4 °F55.4 °F100 %30.01 in9.0 miCalmClear
6:15 AM55.4 °F55.4 °F100 %30.01 in8.0 miCalmClear
6:35 AM55.4 °F55.4 °F100 %30.01 in9.0 miCalmClear
6:55 AM55.4 °F55.4 °F100 %30.01 in8.0 miCalmClear
7:15 AM55.4 °F55.4 °F100 %30.03 in9.0 miCalmClear
7:35 AM57.2 °F57.2 °F100 %30.03 in9.0 miCalmClear
7:55 AM57.2 °F57.2 °F100 %30.04 in10.0 miSSW (200°)4.6 mphRainLight Rain
8:15 AM59.0 °F59.0 °F100 %30.03 in9.0 miCalmClear
8:35 AM59.0 °F59.0 °F100 %30.03 in10.0 miCalmClear
8:55 AM62.6 °F59.0 °F88 %30.03 in10.0 miCalmClear
9:15 AM62.6 °F59.0 °F88 %30.03 in10.0 miCalmClear
9:35 AM62.6 °F59.0 °F88 %30.04 in10.0 miCalmClear
9:55 AM62.6 °F59.0 °F88 %30.03 in10.0 miCalmPartly Cloudy
10:15 AM62.6 °F59.0 °F88 %30.03 in10.0 miCalmPartly Cloudy
10:35 AM62.6 °F59.0 °F88 %30.04 in10.0 miCalmClear
10:55 AM62.6 °F59.0 °F88 %30.04 in10.0 miCalmRainLight Rain
11:15 AM62.6 °F59.0 °F88 %30.04 in9.0 miCalmRainLight Rain
11:35 AM62.6 °F59.0 °F88 %30.03 in7.0 miCalmRainLight Rain
11:55 AM62.6 °F59.0 °F88 %30.04 in10.0 miCalmRainLight Rain
12:15 PM60.8 °F59.0 °F94 %30.03 in10.0 miNorth (360°)4.6 mphOvercast
12:35 PM60.8 °F59.0 °F94 %30.02 in10.0 miNNW (330°)3.5 mphOvercast
12:55 PM62.6 °F59.0 °F88 %30.02 in10.0 miNorth (350°)4.6 mphScattered Clouds
1:15 PM62.6 °F59.0 °F88 %30.02 in10.0 miNorth (360°)4.6 mphPartly Cloudy
1:35 PM60.8 °F59.0 °F94 %30.01 in10.0 miNorth (10°)5.8 mphRainLight Rain
1:55 PM60.8 °F59.0 °F94 %30.00 in8.0 miNNE (20°)4.6 mphRainLight Rain
2:15 PM60.8 °F59.0 °F94 %30.00 in2.5 miCalm0.02 inRainHeavy Rain
2:35 PM62.6 °F60.8 °F94 %30.00 in9.0 miCalm0.02 inRainLight Rain
2:55 PM62.6 °F60.8 °F94 %30.01 in10.0 miNW (310°)3.5 mph0.02 inPartly Cloudy
3:15 PM62.6 °F59.0 °F88 %29.99 in10.0 miNorth (350°)5.8 mphPartly Cloudy
3:35 PM64.4 °F59.0 °F83 %29.99 in10.0 miWNW (290°)4.6 mphScattered Clouds
3:55 PM64.4 °F59.0 °F83 %29.97 in10.0 miCalmPartly Cloudy
4:15 PM64.4 °F59.0 °F83 %29.97 in10.0 miCalmPartly Cloudy
4:35 PM64.4 °F59.0 °F83 %29.97 in10.0 miNorth (360°)3.5 mphClear
4:55 PM64.4 °F59.0 °F83 %29.97 in10.0 miNorth (360°)3.5 mphClear
5:15 PM64.4 °F59.0 °F83 %29.96 in10.0 miCalmClear
5:35 PM64.4 °F59.0 °F83 %29.95 in10.0 miCalmRainLight Rain
5:55 PM64.4 °F59.0 °F83 %29.94 in10.0 miCalmClear
6:15 PM64.4 °F59.0 °F83 %29.94 in10.0 miCalmClear
6:35 PM64.4 °F59.0 °F83 %29.94 in9.0 miCalmClear
6:55 PM64.4 °F59.0 °F83 %29.94 in10.0 miCalmClear
7:15 PM64.4 °F57.2 °F77 %29.92 in10.0 miCalmClear
7:35 PM64.4 °F59.0 °F83 %29.91 in10.0 miCalmClear
7:55 PM62.6 °F59.0 °F88 %29.91 in10.0 miCalmClear
8:15 PM64.4 °F57.2 °F77 %29.92 in10.0 miCalmClear
8:35 PM62.6 °F59.0 °F88 %29.92 in10.0 miCalmPartly Cloudy
8:55 PM62.6 °F59.0 °F88 %29.92 in10.0 miCalmScattered Clouds
9:15 PM62.6 °F59.0 °F88 %29.92 in10.0 miCalmPartly Cloudy
9:35 PM62.6 °F59.0 °F88 %29.92 in10.0 miCalmClear
9:55 PM62.6 °F59.0 °F88 %29.91 in10.0 miSSW (200°)3.5 mphClear
10:15 PM62.6 °F59.0 °F88 %29.92 in10.0 miCalmClear
10:35 PM62.6 °F57.2 °F82 %29.92 in10.0 miCalmClear
10:55 PM62.6 °F59.0 °F88 %29.91 in10.0 miCalmClear
11:15 PM62.6 °F59.0 °F88 %29.91 in10.0 miCalmClear
11:35 PM62.6 °F59.0 °F88 %29.91 in10.0 miCalmClear
11:55 PM60.8 °F59.0 °F94 %29.91 in10.0 miCalmClear
Hourly data recorded from CZBB, located miles away from Vancouver, British Columbia







STORIES FROM OUR PARTNERS